Simultaneous Nadir Overpasses (SNOs) Predictions

Prediction of SNOs between GOES-16 and METOP-B Satellite Orbit:

Table of predicted SNOs for the next 14.0 days since TLE Epoch: 2/27/2021
Index Date Time (GOES-16) GOES-16 Lat,Lon METOP-B Lat,Lon Distance(km) Time Diff (sec)
1 02/27/2021 14:23:59 0.02, -75.21 -0.46, -73.16 235.01 80
2 03/01/2021 02:42:58 -0.03, -75.19 -0.58, -77.75 291.48 80
3 03/02/2021 02:19:37 -0.02, -75.19 0.49, -72.74 278.08 80
4 03/03/2021 14:38:30 0.02, -75.23 0.47, -77.32 237.46 80
5 03/04/2021 14:20:29 0.02, -75.23 -0.60, -72.31 332.41 80
6 03/06/2021 02:39:29 -0.02, -75.21 -0.37, -76.92 193.36 80
7 03/07/2021 02:16:09 -0.02, -75.22 0.70, -71.91 376.54 80
8 03/08/2021 14:35:01 0.01, -75.26 0.26, -76.48 138.75 80
9 03/09/2021 14:17:01 0.01, -75.27 -0.81, -71.48 431.66 80
10 03/11/2021 02:36:00 -0.00, -75.26 -0.21, -76.07 92.72 80
11 03/12/2021 02:12:41 -0.00, -75.28 0.93, -71.08 478.20 80
